GAP2775 RPLL-RPSP

Flight info

Callsign GAP2775
Flight time 1h 17m
Altitude 37000
Route IPATA4V IPATA W25 BATAY BATAY1P
Aircraft A320/M-SDE3FGHIRWY/LB1

Departure

Time 2026-04-21 13:31
Airport Ninoy Aquino International Airport (RPLL)

Arrival

Time 2026-04-21 14:48
Airport Bohol-Panglao International Airport (RPSP)
Time Latitude Longitude Altitude Speed Heading
2026-04-21 13:01 14.50871 121.01306 82 ft 0 kts 329°
2026-04-21 13:16 14.50865 121.01309 82 ft 2 kts 329°
2026-04-21 13:16 14.50852 121.01318 82 ft 2 kts 329°
2026-04-21 13:17 14.50839 121.01325 82 ft 2 kts 329°
2026-04-21 13:17 14.50826 121.01334 82 ft 2 kts 329°
2026-04-21 13:17 14.50813 121.01341 82 ft 2 kts 329°
2026-04-21 13:17 14.50800 121.01350 82 ft 2 kts 329°
2026-04-21 13:18 14.50787 121.01356 82 ft 2 kts
2026-04-21 13:18 14.50772 121.01351 82 ft 2 kts 42°
2026-04-21 13:18 14.50767 121.01346 82 ft 1 kts 66°
2026-04-21 13:18 14.50765 121.01341 82 ft 0 kts 61°
2026-04-21 13:21 14.50766 121.01342 82 ft 1 kts 61°
2026-04-21 13:21 14.50776 121.01361 82 ft 4 kts 60°
2026-04-21 13:22 14.50793 121.01392 82 ft 5 kts 60°
2026-04-21 13:22 14.50816 121.01433 82 ft 7 kts 61°
2026-04-21 13:22 14.50843 121.01483 82 ft 8 kts 60°
2026-04-21 13:22 14.50879 121.01547 82 ft 12 kts 60°
2026-04-21 13:23 14.50926 121.01631 82 ft 14 kts 60°
2026-04-21 13:23 14.50969 121.01691 82 ft 8 kts 20°
2026-04-21 13:23 14.50991 121.01682 82 ft 4 kts 319°
2026-04-21 13:23 14.51034 121.01639 82 ft 10 kts 315°
2026-04-21 13:24 14.51090 121.01582 82 ft 11 kts 315°
2026-04-21 13:24 14.51151 121.01518 82 ft 13 kts 315°
2026-04-21 13:24 14.51217 121.01450 82 ft 11 kts 314°
2026-04-21 13:24 14.51259 121.01421 82 ft 7 kts 358°
2026-04-21 13:25 14.51301 121.01452 82 ft 6 kts 48°
2026-04-21 13:25 14.51338 121.01465 82 ft 7 kts 329°
2026-04-21 13:25 14.51382 121.01419 82 ft 10 kts 314°
2026-04-21 13:25 14.51445 121.01353 82 ft 15 kts 314°
2026-04-21 13:26 14.51530 121.01265 82 ft 19 kts 315°
2026-04-21 13:26 14.51632 121.01160 82 ft 21 kts 314°
2026-04-21 13:26 14.51737 121.01051 82 ft 21 kts 315°
2026-04-21 13:26 14.51845 121.00942 82 ft 21 kts 315°
2026-04-21 13:27 14.51951 121.00832 82 ft 21 kts 313°
2026-04-21 13:27 14.52058 121.00720 82 ft 21 kts 314°
2026-04-21 13:27 14.52165 121.00610 82 ft 21 kts 315°
2026-04-21 13:27 14.52251 121.00519 82 ft 7 kts 300°
2026-04-21 13:28 14.52263 121.00496 82 ft 1 kts 341°
2026-04-21 13:28 14.52272 121.00504 82 ft 2 kts 78°
2026-04-21 13:28 14.52257 121.00520 82 ft 4 kts 152°
2026-04-21 13:28 14.52237 121.00536 82 ft 1 kts 134°
2026-04-21 13:30 14.52141 121.00635 82 ft 62 kts 134°
2026-04-21 13:30 14.51609 121.01183 83 ft 149 kts 134°
2026-04-21 13:31 14.50798 121.02045 673 ft 174 kts 134°
2026-04-21 13:31 14.49950 121.02869 1641 ft 169 kts 133°
2026-04-21 13:31 14.49087 121.03679 2288 ft 173 kts 133°
2026-04-21 13:31 14.48161 121.04562 2762 ft 190 kts 133°
2026-04-21 13:32 14.47156 121.05556 3165 ft 212 kts 130°
2026-04-21 13:32 14.46159 121.06756 3694 ft 230 kts 127°
2026-04-21 13:32 14.45123 121.08090 4237 ft 248 kts 127°
2026-04-21 13:32 14.43994 121.09542 4825 ft 265 kts 127°
2026-04-21 13:33 14.42825 121.11031 5649 ft 272 kts 127°
2026-04-21 13:33 14.41639 121.12528 6511 ft 276 kts 127°
2026-04-21 13:33 14.40407 121.14076 7337 ft 280 kts 127°
2026-04-21 13:33 14.39183 121.15613 8171 ft 283 kts 127°
2026-04-21 13:34 14.37933 121.17181 9019 ft 286 kts 127°
2026-04-21 13:34 14.36662 121.18774 9839 ft 290 kts 127°
2026-04-21 13:34 14.35372 121.20395 10554 ft 296 kts 127°
2026-04-21 13:34 14.34048 121.22059 11121 ft 306 kts 127°
2026-04-21 13:35 14.32695 121.23757 11828 ft 310 kts 127°
2026-04-21 13:35 14.31323 121.25478 12534 ft 314 kts 128°
2026-04-21 13:35 14.29919 121.27236 13210 ft 317 kts 128°
2026-04-21 13:35 14.28529 121.28976 13841 ft 321 kts 128°
2026-04-21 13:36 14.27106 121.30757 14446 ft 324 kts 128°
2026-04-21 13:36 14.25655 121.32572 15021 ft 328 kts 128°
2026-04-21 13:36 14.24193 121.34402 15579 ft 332 kts 129°
2026-04-21 13:36 14.22738 121.36222 16110 ft 335 kts 129°
2026-04-21 13:37 14.21241 121.38096 16639 ft 339 kts 129°
2026-04-21 13:37 14.19744 121.39968 17143 ft 342 kts 129°
2026-04-21 13:37 14.18232 121.41859 17637 ft 345 kts 129°
2026-04-21 13:37 14.17713 121.42507 17806 ft 346 kts 129°
2026-04-21 13:38 14.15149 121.45711 18613 ft 351 kts 130°
2026-04-21 13:38 14.13597 121.47649 19082 ft 354 kts 130°
2026-04-21 13:38 14.12018 121.49621 19552 ft 357 kts 130°
2026-04-21 13:38 14.10442 121.51591 20013 ft 359 kts 130°
2026-04-21 13:39 14.08834 121.53597 20478 ft 362 kts 130°
2026-04-21 13:39 14.07236 121.55592 20928 ft 364 kts 130°
2026-04-21 13:39 14.05613 121.57618 21376 ft 366 kts 131°
2026-04-21 13:39 14.03992 121.59641 21812 ft 369 kts 131°
2026-04-21 13:40 14.02364 121.61673 22239 ft 371 kts 131°
2026-04-21 13:40 14.00715 121.63728 22675 ft 374 kts 131°
2026-04-21 13:40 13.98501 121.66487 23247 ft 377 kts 131°
2026-04-21 13:40 13.97385 121.67876 23530 ft 379 kts 131°
2026-04-21 13:41 13.95691 121.69988 23965 ft 381 kts 131°
2026-04-21 13:41 13.94001 121.72095 24390 ft 384 kts 131°
2026-04-21 13:41 13.92296 121.74219 24809 ft 387 kts 131°
2026-04-21 13:41 13.90572 121.76367 25223 ft 389 kts 131°
2026-04-21 13:42 13.88841 121.78519 25634 ft 392 kts 132°
2026-04-21 13:42 13.86985 121.80599 26035 ft 393 kts 137°
2026-04-21 13:42 13.84965 121.82496 26433 ft 395 kts 142°
2026-04-21 13:42 13.82810 121.84209 26822 ft 396 kts 145°
2026-04-21 13:43 13.80563 121.85905 27216 ft 399 kts 146°
2026-04-21 13:43 13.78303 121.87600 27615 ft 401 kts 146°
2026-04-21 13:43 13.76057 121.89285 28008 ft 403 kts 146°
2026-04-21 13:43 13.73766 121.91007 28402 ft 406 kts 145°
2026-04-21 13:44 13.71504 121.92709 28777 ft 408 kts 145°
2026-04-21 13:44 13.69217 121.94430 29131 ft 410 kts 145°
2026-04-21 13:44 13.66979 121.96117 29457 ft 413 kts 145°
2026-04-21 13:45 13.64645 121.97874 29788 ft 416 kts 145°
2026-04-21 13:45 13.62299 121.99641 30121 ft 419 kts 145°
2026-04-21 13:45 13.60390 122.01080 30390 ft 421 kts 145°
2026-04-21 13:45 13.59089 122.02060 30571 ft 422 kts 145°
2026-04-21 13:46 13.56879 122.03725 30867 ft 425 kts 145°
2026-04-21 13:46 13.54659 122.05394 31159 ft 427 kts 145°
2026-04-21 13:46 13.52255 122.07204 31459 ft 430 kts 145°
2026-04-21 13:46 13.49814 122.09042 31874 ft 430 kts 145°
2026-04-21 13:47 13.47420 122.10842 32129 ft 433 kts 145°
2026-04-21 13:47 13.44946 122.12702 32350 ft 438 kts 145°
2026-04-21 13:47 13.42498 122.14532 32609 ft 441 kts 146°
2026-04-21 13:47 13.39990 122.16410 32914 ft 443 kts 146°
2026-04-21 13:48 13.37489 122.18286 33245 ft 445 kts 146°
2026-04-21 13:48 13.35075 122.20097 33570 ft 446 kts 146°
2026-04-21 13:48 13.32532 122.22006 33880 ft 448 kts 146°
2026-04-21 13:48 13.30475 122.23550 34128 ft 449 kts 146°
2026-04-21 13:49 13.27934 122.25458 34426 ft 451 kts 146°
2026-04-21 13:49 13.26282 122.26698 34647 ft 451 kts 146°
2026-04-21 13:49 13.25222 122.27493 34801 ft 451 kts 146°
2026-04-21 13:49 13.22970 122.29185 35157 ft 449 kts 146°
2026-04-21 13:50 13.21777 122.30080 35338 ft 449 kts 146°
2026-04-21 13:50 13.21150 122.30550 35423 ft 449 kts 146°
2026-04-21 13:50 13.19741 122.31609 35592 ft 449 kts 146°
2026-04-21 13:50 13.17230 122.33492 35828 ft 450 kts 146°
2026-04-21 13:51 13.15677 122.34656 35956 ft 451 kts 146°
2026-04-21 13:51 13.14480 122.35555 36058 ft 452 kts 146°
2026-04-21 13:51 13.12261 122.37219 36244 ft 453 kts 146°
2026-04-21 13:51 13.11440 122.37833 36311 ft 454 kts 146°
2026-04-21 13:52 13.08907 122.39732 36513 ft 455 kts 146°
2026-04-21 13:52 13.06329 122.41664 36718 ft 456 kts 146°
2026-04-21 13:52 13.03761 122.43588 36895 ft 457 kts 146°
2026-04-21 13:52 13.01185 122.45518 36901 ft 458 kts 146°
2026-04-21 13:53 12.96044 122.49367 36905 ft 457 kts 146°
2026-04-21 13:53 12.90904 122.53214 36909 ft 457 kts 146°
2026-04-21 13:54 12.85753 122.57067 36907 ft 456 kts 146°
2026-04-21 13:54 12.80614 122.60909 36909 ft 456 kts 146°
2026-04-21 13:55 12.75505 122.64727 36910 ft 456 kts 146°
2026-04-21 13:55 12.70333 122.68589 36901 ft 455 kts 146°
2026-04-21 13:56 12.65216 122.72409 36908 ft 455 kts 146°
2026-04-21 13:56 12.60107 122.76221 36906 ft 455 kts 146°
2026-04-21 13:57 12.55000 122.80030 36905 ft 454 kts 146°
2026-04-21 13:57 12.49878 122.83849 36906 ft 454 kts 146°
2026-04-21 13:58 12.44745 122.87676 36907 ft 454 kts 146°
2026-04-21 13:58 12.42148 122.89611 36907 ft 455 kts 146°
2026-04-21 13:59 12.38552 122.92290 36907 ft 455 kts 146°
2026-04-21 13:59 12.33424 122.96108 36903 ft 454 kts 146°
2026-04-21 14:00 12.28282 122.99926 36905 ft 454 kts 146°
2026-04-21 14:00 12.23165 123.03721 36905 ft 454 kts 146°
2026-04-21 14:01 12.18063 123.07508 36904 ft 453 kts 146°
2026-04-21 14:01 12.12949 123.11303 36900 ft 453 kts 146°
2026-04-21 14:02 12.07855 123.15083 36905 ft 453 kts 146°
2026-04-21 14:03 12.00206 123.20754 36903 ft 452 kts 146°
2026-04-21 14:03 11.95131 123.24516 36903 ft 452 kts 146°
2026-04-21 14:04 11.90010 123.28310 36904 ft 452 kts 146°
2026-04-21 14:04 11.84878 123.32109 36903 ft 452 kts 146°
2026-04-21 14:05 11.79800 123.35868 36901 ft 452 kts 146°
2026-04-21 14:05 11.74678 123.39657 36902 ft 452 kts 145°
2026-04-21 14:06 11.69604 123.43408 36901 ft 452 kts 145°
2026-04-21 14:06 11.64479 123.47196 36901 ft 452 kts 145°
2026-04-21 14:07 11.59401 123.50948 36900 ft 452 kts 145°
2026-04-21 14:07 11.54310 123.54707 36899 ft 452 kts 145°
2026-04-21 14:08 11.49208 123.58472 36902 ft 452 kts 145°
2026-04-21 14:08 11.44624 123.61855 36901 ft 452 kts 145°
2026-04-21 14:09 11.39514 123.65623 36900 ft 451 kts 146°
2026-04-21 14:09 11.34430 123.69372 36899 ft 451 kts 145°
2026-04-21 14:10 11.29111 123.72737 36627 ft 448 kts 158°
2026-04-21 14:10 11.26161 123.73779 36339 ft 444 kts 166°
2026-04-21 14:10 11.23189 123.74577 36053 ft 441 kts 167°
2026-04-21 14:10 11.20207 123.75345 35764 ft 439 kts 167°
2026-04-21 14:11 11.17223 123.76115 35475 ft 438 kts 167°
2026-04-21 14:11 11.14289 123.76881 35190 ft 439 kts 167°
2026-04-21 14:11 11.11312 123.77663 34899 ft 440 kts 167°
2026-04-21 14:11 11.08354 123.78446 34600 ft 441 kts 167°
2026-04-21 14:12 11.05386 123.79234 34148 ft 441 kts 167°
2026-04-21 14:12 11.02392 123.80030 33655 ft 437 kts 167°
2026-04-21 14:12 10.99467 123.80809 33268 ft 436 kts 167°
2026-04-21 14:12 10.96520 123.81594 32825 ft 433 kts 167°
2026-04-21 14:13 10.93638 123.82361 32408 ft 430 kts 167°
2026-04-21 14:13 10.90744 123.83130 31983 ft 427 kts 167°
2026-04-21 14:13 10.87854 123.83897 31544 ft 424 kts 167°
2026-04-21 14:13 10.85005 123.84654 31081 ft 421 kts 166°
2026-04-21 14:14 10.82170 123.85408 30617 ft 417 kts 166°
2026-04-21 14:14 10.79378 123.86150 30153 ft 414 kts 166°
2026-04-21 14:14 10.76629 123.86881 29693 ft 410 kts 166°
2026-04-21 14:14 10.73878 123.87614 29237 ft 406 kts 166°
2026-04-21 14:15 10.71134 123.88344 28781 ft 402 kts 165°
2026-04-21 14:15 10.68447 123.89057 28316 ft 399 kts 165°
2026-04-21 14:15 10.65740 123.89777 27825 ft 396 kts 165°
2026-04-21 14:15 10.63086 123.90485 27367 ft 392 kts 165°
2026-04-21 14:16 10.60470 123.91181 26936 ft 388 kts 165°
2026-04-21 14:16 10.57875 123.91872 26502 ft 384 kts 165°
2026-04-21 14:16 10.55287 123.92561 26058 ft 380 kts 165°
2026-04-21 14:16 10.52743 123.93236 25614 ft 377 kts 165°
2026-04-21 14:17 10.50220 123.93906 25167 ft 374 kts 165°
2026-04-21 14:17 10.47702 123.94574 24707 ft 372 kts 165°
2026-04-21 14:17 10.45180 123.95244 24261 ft 369 kts 165°
2026-04-21 14:17 10.42705 123.95901 23820 ft 366 kts 165°
2026-04-21 14:18 10.40241 123.96555 23381 ft 364 kts 165°
2026-04-21 14:18 10.37791 123.97205 22930 ft 362 kts 165°
2026-04-21 14:18 10.35361 123.97849 22498 ft 360 kts 165°
2026-04-21 14:18 10.32930 123.98460 22065 ft 358 kts 168°
2026-04-21 14:19 10.30451 123.98871 21633 ft 356 kts 173°
2026-04-21 14:19 10.27998 123.99097 21203 ft 355 kts 176°
2026-04-21 14:19 10.25551 123.99263 20769 ft 353 kts 176°
2026-04-21 14:19 10.23070 123.99427 20339 ft 352 kts 176°
2026-04-21 14:20 10.20631 123.99591 19918 ft 351 kts 176°
2026-04-21 14:20 10.18205 123.99757 19484 ft 350 kts 176°
2026-04-21 14:20 10.15771 123.99925 19051 ft 349 kts 176°
2026-04-21 14:20 10.13326 124.00096 18619 ft 347 kts 176°
2026-04-21 14:21 10.10932 124.00264 18204 ft 346 kts 176°
2026-04-21 14:21 10.08534 124.00432 17770 ft 345 kts 176°
2026-04-21 14:21 10.06135 124.00600 17344 ft 343 kts 176°
2026-04-21 14:21 10.03735 124.00769 16919 ft 343 kts 176°
2026-04-21 14:22 10.01338 124.00939 16498 ft 342 kts 176°
2026-04-21 14:22 9.98982 124.01105 16089 ft 340 kts 177°
2026-04-21 14:22 9.96599 124.01273 15676 ft 339 kts 177°
2026-04-21 14:22 9.94246 124.01436 15260 ft 337 kts 177°
2026-04-21 14:23 9.91915 124.01598 14847 ft 336 kts 178°
2026-04-21 14:23 9.89577 124.01475 14421 ft 332 kts 191°
2026-04-21 14:23 9.87367 124.00816 14011 ft 329 kts 203°
2026-04-21 14:23 9.85272 123.99907 13603 ft 327 kts 205°
2026-04-21 14:24 9.83188 123.98963 13183 ft 325 kts 205°
2026-04-21 14:24 9.81132 123.98032 12772 ft 323 kts 205°
2026-04-21 14:24 9.79091 123.97111 12354 ft 321 kts 205°
2026-04-21 14:24 9.77063 123.96202 11928 ft 319 kts 205°
2026-04-21 14:25 9.75026 123.95293 11504 ft 318 kts 204°
2026-04-21 14:25 9.72996 123.94387 11069 ft 316 kts 204°
2026-04-21 14:25 9.70985 123.93492 10638 ft 315 kts 204°
2026-04-21 14:25 9.68968 123.92595 10211 ft 313 kts 204°
2026-04-21 14:26 9.67013 123.91726 9992 ft 294 kts 204°
2026-04-21 14:26 9.65158 123.90901 9688 ft 290 kts 204°
2026-04-21 14:26 9.63323 123.90065 9313 ft 290 kts 206°
2026-04-21 14:26 9.61514 123.89147 8923 ft 290 kts 206°
2026-04-21 14:27 9.59694 123.88209 8531 ft 289 kts 206°
2026-04-21 14:27 9.57904 123.87284 8149 ft 289 kts 206°
2026-04-21 14:27 9.56117 123.86363 7774 ft 288 kts 206°
2026-04-21 14:27 9.54317 123.85436 7398 ft 287 kts 205°
2026-04-21 14:28 9.52533 123.84518 7028 ft 287 kts 205°
2026-04-21 14:28 9.50758 123.83607 6660 ft 286 kts 205°
2026-04-21 14:28 9.48985 123.82696 6296 ft 285 kts 205°
2026-04-21 14:28 9.47212 123.81784 5933 ft 284 kts 205°
2026-04-21 14:29 9.45449 123.80878 5573 ft 283 kts 205°
2026-04-21 14:29 9.43694 123.79977 5221 ft 283 kts 205°
2026-04-21 14:29 9.41927 123.79070 4864 ft 282 kts 205°
2026-04-21 14:29 9.40189 123.78177 4516 ft 281 kts 205°
2026-04-21 14:30 9.38433 123.77274 4167 ft 280 kts 206°
2026-04-21 14:30 9.36875 123.76105 3962 ft 277 kts 233°
2026-04-21 14:30 9.36204 123.74373 3890 ft 264 kts 269°
2026-04-21 14:30 9.36604 123.72636 3741 ft 249 kts 303°
2026-04-21 14:31 9.37598 123.71214 3603 ft 243 kts 311°
2026-04-21 14:31 9.38629 123.69865 3455 ft 243 kts 309°
2026-04-21 14:31 9.39610 123.68465 3307 ft 243 kts 310°
2026-04-21 14:31 9.40835 123.67361 3113 ft 229 kts 343°
2026-04-21 14:32 9.42305 123.67298 3012 ft 204 kts 25°
2026-04-21 14:32 9.43397 123.68062 2930 ft 179 kts 44°
2026-04-21 14:32 9.44321 123.68878 2824 ft 176 kts 41°
2026-04-21 14:32 9.45292 123.69632 2747 ft 176 kts 38°
2026-04-21 14:33 9.46292 123.70327 2460 ft 169 kts 36°
2026-04-21 14:33 9.47262 123.70956 2146 ft 160 kts 35°
2026-04-21 14:33 9.48171 123.71521 1908 ft 145 kts 35°
2026-04-21 14:33 9.48999 123.72027 1698 ft 131 kts 35°
2026-04-21 14:34 9.49762 123.72489 1523 ft 123 kts 35°
2026-04-21 14:34 9.50495 123.72932 1373 ft 121 kts 35°
2026-04-21 14:34 9.51218 123.73369 1222 ft 120 kts 35°
2026-04-21 14:34 9.51935 123.73799 1066 ft 120 kts 35°
2026-04-21 14:35 9.52650 123.74229 906 ft 119 kts 34°
2026-04-21 14:35 9.53373 123.74661 745 ft 119 kts 34°
2026-04-21 14:35 9.54093 123.75093 582 ft 119 kts 34°
2026-04-21 14:35 9.54802 123.75515 429 ft 119 kts 33°
2026-04-21 14:36 9.55527 123.75942 262 ft 118 kts 34°
2026-04-21 14:36 9.56233 123.76369 117 ft 118 kts 33°
2026-04-21 14:36 9.56915 123.76772 49 ft 105 kts 32°
2026-04-21 14:36 9.57614 123.77188 442 ft 125 kts 33°
2026-04-21 14:37 9.58363 123.77625 1201 ft 129 kts 34°
2026-04-21 14:37 9.59113 123.78065 2022 ft 126 kts 34°
2026-04-21 14:37 9.59910 123.78544 2459 ft 143 kts 38°
2026-04-21 14:37 9.60489 123.79376 2908 ft 159 kts 82°
2026-04-21 14:38 9.60093 123.80472 3373 ft 186 kts 132°
2026-04-21 14:38 9.58829 123.81055 3798 ft 215 kts 165°
2026-04-21 14:38 9.57326 123.81261 3975 ft 222 kts 170°
2026-04-21 14:38 9.55785 123.81427 3976 ft 221 kts 169°
2026-04-21 14:39 9.54261 123.81663 3976 ft 220 kts 166°
2026-04-21 14:39 9.52727 123.81934 3976 ft 221 kts 166°
2026-04-21 14:39 9.51140 123.82217 3986 ft 243 kts 167°
2026-04-21 14:39 9.49419 123.82407 3977 ft 253 kts 180°
2026-04-21 14:40 9.47655 123.82045 3977 ft 259 kts 199°
2026-04-21 14:40 9.46009 123.81261 3979 ft 260 kts 205°
2026-04-21 14:40 9.44405 123.80405 3978 ft 260 kts 206°
2026-04-21 14:40 9.42806 123.79549 3975 ft 260 kts 205°
2026-04-21 14:41 9.41204 123.78706 3973 ft 259 kts 205°
2026-04-21 14:41 9.39571 123.77858 3973 ft 259 kts 205°
2026-04-21 14:41 9.37988 123.77005 3971 ft 260 kts 212°
2026-04-21 14:41 9.36819 123.75646 3908 ft 255 kts 249°
2026-04-21 14:42 9.36597 123.73907 3798 ft 251 kts 282°
2026-04-21 14:42 9.37246 123.72301 3673 ft 246 kts 304°
2026-04-21 14:42 9.38180 123.70837 3533 ft 244 kts 306°
2026-04-21 14:42 9.39098 123.69395 3320 ft 239 kts 305°
2026-04-21 14:43 9.40020 123.68021 3113 ft 231 kts 317°
2026-04-21 14:43 9.41349 123.67287 2889 ft 214 kts 359°
2026-04-21 14:43 9.42686 123.67622 2680 ft 187 kts 38°
2026-04-21 14:43 9.43655 123.68417 2597 ft 177 kts 42°
2026-04-21 14:44 9.44628 123.69191 2405 ft 175 kts 39°
2026-04-21 14:44 9.45608 123.69891 2208 ft 168 kts 37°
2026-04-21 14:44 9.46549 123.70512 2032 ft 156 kts 36°
2026-04-21 14:44 9.47455 123.71083 1950 ft 150 kts 35°
2026-04-21 14:45 9.48338 123.71629 1825 ft 145 kts 35°
2026-04-21 14:45 9.49165 123.72131 1643 ft 130 kts 35°
2026-04-21 14:45 9.49910 123.72579 1483 ft 121 kts 35°
2026-04-21 14:45 9.50632 123.73016 1344 ft 120 kts 35°
2026-04-21 14:46 9.51346 123.73447 1193 ft 120 kts 34°
2026-04-21 14:46 9.52063 123.73878 1040 ft 119 kts 34°
2026-04-21 14:46 9.52788 123.74312 880 ft 119 kts 34°
2026-04-21 14:46 9.53503 123.74740 721 ft 119 kts 34°
2026-04-21 14:47 9.54212 123.75163 564 ft 118 kts 34°
2026-04-21 14:47 9.54926 123.75588 408 ft 118 kts 34°
2026-04-21 14:47 9.55639 123.76006 261 ft 118 kts 34°
2026-04-21 14:47 9.56353 123.76440 92 ft 118 kts 34°
2026-04-21 14:48 9.57007 123.76837 48 ft 91 kts 31°
2026-04-21 14:48 9.57401 123.77071 48 ft 33 kts 32°
2026-04-21 14:48 9.57513 123.77138 48 ft 9 kts 22°
2026-04-21 14:48 9.57568 123.77157 48 ft 6 kts 45°
2026-04-21 14:49 9.57558 123.77174 48 ft 3 kts 185°
2026-04-21 14:49 9.57526 123.77141 48 ft 9 kts 219°
2026-04-21 14:49 9.57462 123.77106 48 ft 11 kts 207°
2026-04-21 14:49 9.57384 123.77074 48 ft 12 kts 174°
2026-04-21 14:50 9.57341 123.77122 48 ft 9 kts 120°
2026-04-21 14:50 9.57305 123.77184 48 ft 11 kts 120°
2026-04-21 14:50 9.57268 123.77242 48 ft 9 kts 138°
2026-04-21 14:50 9.57210 123.77233 48 ft 9 kts 212°
2026-04-21 14:51 9.57153 123.77199 48 ft 9 kts 212°
2026-04-21 14:51 9.57094 123.77164 48 ft 10 kts 210°
2026-04-21 14:51 9.57032 123.77127 48 ft 10 kts 211°
2026-04-21 14:51 9.56974 123.77095 48 ft 7 kts 187°
2026-04-21 14:52 9.56944 123.77128 48 ft 6 kts 118°
2026-04-21 14:52 9.56925 123.77161 48 ft 3 kts 121°
2026-04-21 14:52 9.56922 123.77165 48 ft 0 kts 122°